Regional Weather Roundup
Issued by NWS

Home | Current Version | Previous Version | Text Only | Print | Product List | Glossary Off
Versions: 1 2 3 4 5 6 7 8 9 10 11 12 13 14 15 16 17 18 19 20 21 22 23 24 25 26 27 28 29 30 31 32 33 34 35 36 37 38 39 40 41 42 43 44 45 46 47 48 49 50

741
ASUS43 KMKX 171800
RWRWI

WISCONSIN REGIONAL WEATHER ROUNDUP
NATIONAL WEATHER SERVICE MILWAUKEE/SULLIVAN WI
100 PM CDT TUE OCT 17 2017

NOTE: "FAIR" INDICATES FEW OR NO CLOUDS BELOW 12,000 FEET WITH NO
SIGNIFICANT WEATHER AND/OR OBSTRUCTIONS TO VISIBILITY.

WIZ001-002-006>008-014>016-023>028-171900-
NORTHWEST WISCONSIN

CITY           SKY/WX    TMP DP  RH WIND       PRES   REMARKS
SUPERIOR ARPT  CLOUDY    66  44  45 SW3       29.96F
ASHLAND        MOSUNNY   69  40  34 SW3       29.96F
6HR MIN TEMP:  45; 6HR MAX TEMP:  69;

HAYWARD        SUNNY     66  38  35 S12       29.99F
6HR MIN TEMP:  33; 6HR MAX TEMP:  66;

SIREN          SUNNY     65  42  43 CALM      30.00F
CUMBERLAND     SUNNY     63  41  45 S8        30.01
RICE LAKE      SUNNY     66  44  43 SE6       30.02F
CHETEK         SUNNY     66  46  47 S6        30.02F
LADYSMITH      SUNNY     64  43  46 S8        30.04F
EAU CLAIRE     NOT AVBL
MENOMONIE      SUNNY     66  45  47 SE7       30.03S
NEW RICHMOND   SUNNY     65  42  43 S9        30.01F
OSCEOLA        SUNNY     65  45  47 S5        30.03S
$$

WIZ003>005-009-010-017-018-171900-
NORTH CENTRAL WISCONSIN

CITY           SKY/WX    TMP DP  RH WIND       PRES   REMARKS
MANITOWISH WTR CLOUDY    65  39  38 SW6       30.01S
ARBOR VITAE    MOSUNNY   63  43  47 CALM      30.01F
WOODRUFF       MOSUNNY   63  43  47 CALM      30.01F
RHINELANDER    CLOUDY    65  40  39 SW7       30.03F
6HR MIN TEMP:  37; 6HR MAX TEMP:  66;

EAGLE RIVER    SUNNY     64  38  38 SW8       30.02S
LAND O LAKES   MOSUNNY   66  35  31 SW8       30.02S
PHILLIPS       SUNNY     64  43  47 SW3       30.02F
TOMAHAWK       SUNNY     65  38  36 CALM      30.03F
MEDFORD        SUNNY     64  44  49 SW6       30.04F
MERRILL        SUNNY     65  43  44 SW3       30.04F
$$

WIZ029-030-035-036-043>047-171900-
CENTRAL WISCONSIN

CITY           SKY/WX    TMP DP  RH WIND       PRES   REMARKS
WAUSAU         SUNNY     64  44  48 VRB6      30.03F
6HR MIN TEMP:  42; 6HR MAX TEMP:  64;

MOSINEE        MOSUNNY   64  46  52 SW9       30.06F
MARSHFIELD     SUNNY     66  43  43 SW8       30.04F
6HR MIN TEMP:  43; 6HR MAX TEMP:  66;

STEVENS POINT  SUNNY     62  43  50 SW6       30.06S
WAUPACA        SUNNY     67  46  45 SW7       30.06S
WAUTOMA        SUNNY     66  46  48 SW8       30.06F
6HR MIN TEMP:  35; 6HR MAX TEMP:  67;

WISC RAPIDS    SUNNY     65  47  52 SW8       30.06F
6HR MIN TEMP:  44; 6HR MAX TEMP:  65;

CAMP DOUGLAS   NOT AVBL
$$

WIZ011>013-019>022-031-037>040-048>050-171900-
NORTHEAST WISCONSIN

CITY           SKY/WX    TMP DP  RH WIND       PRES   REMARKS
ANTIGO         SUNNY     62  44  50 SW6       30.04F
SHAWANO        SUNNY     67  44  43 SW7       30.04F
OCONTO         SUNNY     65  44  46 W8        30.02F
STURGEON BAY   SUNNY     64  45  49 MISG      30.03S
6HR MIN TEMP:  52; 6HR MAX TEMP:  64;

GREEN BAY      SUNNY     64  50  60 SW9       30.04F
6HR MIN TEMP:  47; 6HR MAX TEMP:  64;

MANITOWOC      SUNNY     64  46  52 W9        30.06F
6HR MIN TEMP:  53; 6HR MAX TEMP:  64;

APPLETON       NOT AVBL
CLINTONVILLE   SUNNY     66  43  42 SW6       30.04F
OSHKOSH        SUNNY     65  46  50 W12G17    30.06F
6HR MIN TEMP:  47; 6HR MAX TEMP:  65;

$$

WIZ032>034-041-042-053>061-171900-
SOUTHWEST WISCONSIN

CITY           SKY/WX    TMP DP  RH WIND       PRES   REMARKS
LA CROSSE      SUNNY     66  46  48 S8        30.06F
6HR MIN TEMP:  48; 6HR MAX TEMP:  66;

SPARTA         SUNNY     63  44  50 SW5       30.07F
VIROQUA        SUNNY     63  46  54 SW9       30.09S
BOSCOBEL       SUNNY     68  44  42 SW8       30.09F
6HR MIN TEMP:  42; 6HR MAX TEMP:  68;

PRAIRIE DU CHI SUNNY     65  41  41 S6        30.09F
PLATTEVILLE    SUNNY     66  46  47 SW16      30.12F
$$

WIZ056-057-062-063-064-067-068-171900-
SOUTH CENTRAL WISCONSIN

CITY           SKY/WX    TMP DP  RH WIND       PRES   REMARKS
REEDSBURG      SUNNY     65  46  50 SW10      30.08F
BARABOO/DELLS  SUNNY     64  44  48 SW8       30.08F
LONE ROCK      NOT AVBL
MINERAL POINT  SUNNY     68  43  40 SW10      30.11F
MADISON        MOSUNNY   65  45  48 VRB6      30.09F
6HR MIN TEMP:  52; 6HR MAX TEMP:  65;

MIDDLETON      SUNNY     66  46  47 W8        30.10F
WATERTOWN      SUNNY     65  45  48 SW8       30.10F
MONROE         SUNNY     64  41  42 SW18      30.12F
JANESVILLE     MOSUNNY   70  41  35 MISG      30.11F
$$

WIZ051-052-058>065-066-070>072-171900-
SOUTHEAST WISCONSIN

CITY           SKY/WX    TMP DP  RH WIND       PRES   REMARKS
MILWAUKEE      MOSUNNY   70  42  36 W13G26    30.11F
6HR MIN TEMP:  51; 6HR MAX TEMP:  70;

WAUKESHA       SUNNY     64  43  45 W13       30.12F
MILWAUKEE/TIMM SUNNY     66  39  37 W8        30.11S
RACINE         SUNNY     70  44  39 SW15G23   30.12F
6HR MIN TEMP:  52; 6HR MAX TEMP:  70;

BURLINGTON     SUNNY     69  44  41 SW16G23   30.12F
KENOSHA        SUNNY     70  43  37 SW17G25   30.12F
6HR MIN TEMP:  51; 6HR MAX TEMP:  70;

FOND DU LAC    SUNNY     66  43  43 SW9       30.06F
6HR MIN TEMP:  48; 6HR MAX TEMP:  66;

SHEBOYGAN      SUNNY     66  47  50 SW13      30.06F
6HR MIN TEMP:  51; 6HR MAX TEMP:  66;

WEST BEND      SUNNY     64  41  42 W13       30.08F
JUNEAU         SUNNY     63  44  49 SW10      30.10F
$$

LSZ147-162-171900-
LAKE SUPERIOR

STATION/POSITION TIME  TEMP    WIND        PRES    WAVE
                       AIR SEA DIR/SP/G            HT/PER
                 (UTC) (F)     (DEG/KT/KT) (MB)    (FT/S)
W MID LAKE BUOY  1650   53 53              1014.5F   2/ 4
DEVILS ISLAND    1700   54     230/ 11/ 12 1015.1S
SAXON HARBOR     1740   59      70/  3/  4 1014.2F
$$

LMZ867-665-643>646-171900-
LAKE MICHIGAN

STATION/POSITION TIME  TEMP    WIND        PRES    WAVE
                       AIR SEA DIR/SP/G            HT/PER
                 (UTC) (F)     (DEG/KT/KT) (MB)    (FT/S)
S GREEN BAY BUOY 1730   58 58  210/ 12/ 14 1016.6F
N MID LAKE BUOY  1650   56 59  240/ 12/ 14 1017.1R   5/ 7
NORTHPORT PIER   1740   62     230/  4/  9 1015.9F
KEWAUNEE LAKESHO 1730   63     250/  6/  8 1016.4F
SHEBOYGAN LAKESH 1700   62     260/ 11/ 12 1018.2R
PORT WASHINGTON  1730   67     260/  7/ 14 1019.6S
MILWAUKEE LAKESH 1750   66     250/  9/ 11   N/A
S MID LAKE BUOY  1650   60 61  250/ 21/ 25 1020.4F   5/ 6
KENOSHA   LAKESH 1700   66     240/ 13/ 18 1020.3
$$

TC  - TEMPERATURE IN CELSIUS
VSB - VISIBILITY IN STATUTE MILES
WCI - WIND CHILL INDEX
HX  - HEAT INDEX





USA.gov is the U.S. government's official web portal to all federal, state and local government web resources and services.